Regional Weather Roundup
Issued by NWS

Home | Current Version | Previous Version | Graphics & Text | Print | Product List | Glossary On
Versions: 1 2 3 4 5 6 7 8 9 10 11 12 13 14 15 16 17 18 19 20 21 22 23 24 25 26 27 28 29 30 31 32 33 34 35 36 37 38 39 40 41 42 43 44 45 46 47 48 49 50
000
ASUS43 KLSX 271507
RWRMO

WEATHER SUMMARY FOR MISSOURI
NATIONAL WEATHER SERVICE SPRINGFIELD MO
1000 AM CDT FRI MAY 27 2016

NOTE: "FAIR" INDICATES FEW OR NO CLOUDS BELOW 12,000 FEET WITH NO
       SIGNIFICANT WEATHER AND/OR OBSTRUCTIONS TO VISIBILITY.
       CURRENT SKY AND/OR WEATHER CONDITIONS ARE NOT AVAILABLE FOR
       CHILLICOTHE AND FARMINGTON.

MOZ001>031-035>038-043-044-053-054-271600-
...NORTHERN AND WESTERN MISSOURI...

CITY           SKY/WX    TMP DP  RH WIND       PRES   REMARKS
KANSAS CTY INT CLOUDY    67  62  84 SW12      29.74R
KANSAS C DTWN  PTSUNNY   70  63  78 SW8       29.73F
LEE`S SUMMIT   MOSUNNY   70  62  76 S14       29.75S
ST JOSEPH      CLOUDY    68  63  84 S15       29.73R
CHILLICOTHE      N/A     74  67  78 S13       29.72F
KIRKSVILLE     LGT RAIN  73  67  81 S20       29.75F

$$
MOZ066>068-077>081-088>096-101>105-271600-
...SOUTHWEST MISSOURI...

CITY           SKY/WX    TMP DP  RH WIND       PRES   REMARKS
SPRINGFIELD    CLOUDY    73  65  75 S10       29.80R
JOPLIN         CLOUDY    72  66  81 S12       29.79S
BRANSON        CLOUDY    72  66  83 SE7       29.84F

$$
MOZ032>034-039>042-045>050-055>058-069>072-271600-
...CENTRAL MISSOURI...

CITY           SKY/WX    TMP DP  RH WIND       PRES   REMARKS
COLUMBIA       CLOUDY    72  68  87 S14       29.82S
JEFFERSON CITY CLOUDY    73  67  81 SE9       29.81F
ROLLA          CLOUDY    70  66  87 S14G24    29.84S
SEDALIA        PTSUNNY   75  69  81 S17       29.77F
WHITEMAN AFB   SUNNY     74  69  84 S15G23    29.74F
WARRENSBURG    MOSUNNY   72  61  68 S16       29.74S

$$
MOZ051-052-059>065-271600-
...EAST CENTRAL MISSOURI...

CITY           SKY/WX    TMP DP  RH WIND       PRES   REMARKS
ST LOUIS INTL  LGT RAIN  70  66  87 SE10G20   29.89S FOG
SPIRIT OF STL  LGT RAIN  70  68  93 SE6G16    29.86S
ST CHARLES     RAIN      69  68  96 SE14      29.86F FOG

$$
MOZ072>076-082>087-097>100-106>115-271600-
...SOUTH CENTRAL AND SOUTHEAST MISSOURI...

CITY           SKY/WX    TMP DP  RH WIND       PRES   REMARKS
CAPE GIRARDEAU CLOUDY    70  67  90 SE10      29.93F
FARMINGTON     LGT RAIN  67  66  97 SE9       29.91F
POPLAR BLUFF   CLOUDY    70  68  93 SE5       29.90F
WEST PLAINS    CLOUDY    71  67  87 S8        29.88F

$$



USA.gov is the U.S. government's official web portal to all federal, state and local government web resources and services.